Mankato, MN

12:17 AM CST on December 12, 2017 (GMT -0600)
Mankato Regional

Weather History for KMKT - November, 2013

Change the Weather History Date:

Saturday, November 23, 2013

  Actual Average Record
Temperature  
Mean Temperature 10 °F -  
Max Temperature 17 °F 36 °F 57 °F (2006)
Min Temperature 3 °F 22 °F 3 °F (2013)
Degree Days  
Heating Degree Days 55    
Moisture  
Dew Point 0 °F    
Average Humidity 64    
Maximum Humidity 85    
Minimum Humidity 49    
Precipitation  
Precipitation 0.00 in - - ()
Sea Level Pressure  
Sea Level Pressure 30.75 in    
Wind  
Wind Speed 13 mph (NW)    
Max Wind Speed 20 mph    
Max Gust Speed 24 mph    
Visibility 10 miles    
Events      
Averages and records for this station are not official NWS values.
T = Trace of Precipitation, MM = Missing Value Source: NWS Daily Summary

Daily Weather History Graph

Daily Weather History Graph

Search for Another Location

Airport or City:

Trip Planner

Search our weather history database for the weather conditions in past years. The results will help you decide how hot, cold, wet, or windy it might be!

Date:

Astronomy

Nov. 23, 2013 Rise Set
Actual Time 7:21 AM CST 4:42 PM CST
Civil Twilight 6:49 AM CST 5:14 PM CST
Nautical Twilight 6:14 AM CST 5:49 PM CST
Astronomical Twilight 5:39 AM CST 6:24 PM CST
Moon 10:16 PM CST (11/23) 11:34 AM CST (11/23)
Length of Visible Light 10h 24m
Length of Day
9h 20m
Waning Gibbous, 69% of the Moon is Illuminated
Nov 23
Waning Gibbous
Nov 25
Last Quarter
Dec 2
New
Dec 9
First Quarter
Dec 17
Full

Hourly Weather History & Observations

Time (CST) Temp. Windchill Dew Point Humidity Pressure Visibility Wind Dir Wind Speed Gust Speed Precip Events Conditions
12:15 AM 12.2 °F -5.8 °F 1.4 °F 62% 30.63 in 10.0 mi NNW 19.6 mph 24.2 mph N/A   Clear
12:35 AM 10.4 °F -7.7 °F -0.4 °F 62% 30.63 in 10.0 mi NNW 18.4 mph - N/A   Clear
12:55 AM 10.4 °F -7.2 °F -0.4 °F 62% 30.65 in 10.0 mi NNW 17.3 mph - N/A   Clear
1:15 AM 10.4 °F -7.2 °F 1.4 °F 67% 30.65 in 10.0 mi NNW 17.3 mph 21.9 mph N/A   Clear
1:35 AM 8.6 °F -7.7 °F 1.4 °F 73% 30.66 in 10.0 mi NNW 13.8 mph 18.4 mph N/A   Clear
1:55 AM 8.6 °F -8.3 °F -0.4 °F 67% 30.66 in 10.0 mi NNW 15.0 mph 19.6 mph N/A   Clear
2:15 AM 8.6 °F -7.7 °F -0.4 °F 67% 30.68 in 10.0 mi NNW 13.8 mph - N/A   Clear
2:35 AM 8.6 °F -7.7 °F -0.4 °F 67% 30.69 in 10.0 mi NNW 13.8 mph - N/A   Clear
2:55 AM 8.6 °F -8.9 °F -0.4 °F 67% 30.69 in 10.0 mi NNW 16.1 mph 19.6 mph N/A   Clear
3:15 AM 6.8 °F -11.3 °F -0.4 °F 72% 30.69 in 10.0 mi NNW 16.1 mph - N/A   Clear
3:35 AM 6.8 °F -11.8 °F -0.4 °F 72% 30.69 in 10.0 mi North 17.3 mph 20.7 mph N/A   Clear
3:55 AM 6.8 °F -9.3 °F -0.4 °F 72% 30.69 in 10.0 mi NNW 12.7 mph - N/A   Clear
4:15 AM 6.8 °F -10.0 °F -0.4 °F 72% 30.70 in 10.0 mi NNW 13.8 mph - N/A   Clear
4:35 AM 6.8 °F -10.7 °F -0.4 °F 72% 30.71 in 10.0 mi NNW 15.0 mph - N/A   Clear
4:55 AM 6.8 °F -10.7 °F -0.4 °F 72% 30.72 in 10.0 mi NNW 15.0 mph - N/A   Clear
5:15 AM 6.8 °F -10.0 °F -0.4 °F 72% 30.73 in 10.0 mi NNW 13.8 mph - N/A   Clear
5:35 AM 6.8 °F -8.6 °F -0.4 °F 72% 30.74 in 10.0 mi NNW 11.5 mph - N/A   Clear
5:55 AM 6.8 °F -8.6 °F -0.4 °F 72% 30.75 in 10.0 mi NNW 11.5 mph - N/A   Clear
6:15 AM 6.8 °F -9.3 °F -0.4 °F 72% 30.76 in 10.0 mi NNW 12.7 mph - N/A   Clear
6:35 AM 6.8 °F -4.8 °F -0.4 °F 72% 30.77 in 10.0 mi NW 6.9 mph - N/A   Clear
6:55 AM 5.0 °F -8.1 °F -0.4 °F 78% 30.78 in 10.0 mi NW 8.1 mph - N/A   Clear
7:15 AM 3.2 °F -10.3 °F -2.2 °F 78% 30.79 in 10.0 mi NW 8.1 mph - N/A   Clear
7:35 AM 3.2 °F -7.8 °F -0.4 °F 85% 30.80 in 10.0 mi NW 5.8 mph - N/A   Clear
7:55 AM 5.0 °F -6.9 °F -0.4 °F 78% 30.81 in 10.0 mi NW 6.9 mph - N/A   Clear
8:15 AM 5.0 °F -8.1 °F -0.4 °F 78% 30.82 in 10.0 mi NW 8.1 mph - N/A   Clear
8:35 AM 6.8 °F -6.9 °F -0.4 °F 72% 30.83 in 10.0 mi NW 9.2 mph - N/A   Clear
8:55 AM 6.8 °F -7.8 °F -0.4 °F 72% 30.83 in 10.0 mi NW 10.4 mph - N/A   Clear
9:15 AM 8.6 °F -7.0 °F 1.4 °F 73% 30.84 in 10.0 mi NW 12.7 mph - N/A   Clear
9:35 AM 8.6 °F -7.0 °F 1.4 °F 73% 30.84 in 10.0 mi NNW 12.7 mph 16.1 mph N/A   Partly Cloudy
9:55 AM 8.6 °F -5.5 °F 1.4 °F 73% 30.84 in 10.0 mi NW 10.4 mph - N/A   Partly Cloudy
10:15 AM 10.4 °F -4.8 °F 1.4 °F 67% 30.85 in 10.0 mi NW 12.7 mph - N/A   Scattered Clouds
10:35 AM 10.4 °F -4.8 °F 3.2 °F 73% 30.84 in 10.0 mi NW 12.7 mph - N/A   Partly Cloudy
10:55 AM 12.2 °F -2.5 °F 3.2 °F 67% 30.83 in 10.0 mi NNW 12.7 mph - N/A   Partly Cloudy
11:15 AM 12.2 °F -2.5 °F 3.2 °F 67% 30.82 in 10.0 mi NNW 12.7 mph 18.4 mph N/A   Partly Cloudy
11:35 AM 12.2 °F -3.1 °F 1.4 °F 62% 30.82 in 10.0 mi NNW 13.8 mph - N/A   Scattered Clouds
11:55 AM 14.0 °F -2.0 °F 1.4 °F 57% 30.81 in 10.0 mi NNW 16.1 mph 19.6 mph N/A   Partly Cloudy
12:15 PM 15.8 °F -0.2 °F 1.4 °F 53% 30.81 in 10.0 mi North 17.3 mph 21.9 mph N/A   Partly Cloudy
12:35 PM 15.8 °F 0.9 °F 1.4 °F 53% 30.80 in 10.0 mi North 15.0 mph - N/A   Clear
12:55 PM 15.8 °F 1.4 °F 1.4 °F 53% 30.80 in 10.0 mi NNW 13.8 mph - N/A   Clear
1:15 PM 15.8 °F 1.4 °F 1.4 °F 53% 30.80 in 10.0 mi NNW 13.8 mph 18.4 mph N/A   Clear
1:35 PM 15.8 °F 2.7 °F 1.4 °F 53% 30.79 in 10.0 mi NNW 11.5 mph - N/A   Clear
1:55 PM 15.8 °F 2.1 °F 1.4 °F 53% 30.79 in 10.0 mi NNW 12.7 mph - N/A   Clear
2:15 PM 17.6 °F 5.0 °F 1.4 °F 49% 30.79 in 10.0 mi NW 11.5 mph - N/A   Clear
2:35 PM 17.6 °F 4.3 °F 1.4 °F 49% 30.77 in 10.0 mi NNW 12.7 mph - N/A   Clear
2:55 PM 17.6 °F 5.7 °F 1.4 °F 49% 30.78 in 10.0 mi NNW 10.4 mph - N/A   Clear
3:15 PM 17.6 °F 6.4 °F 1.4 °F 49% 30.78 in 10.0 mi NW 9.2 mph - N/A   Clear
3:35 PM 17.6 °F 3.7 °F 1.4 °F 49% 30.78 in 10.0 mi NNW 13.8 mph - N/A   Clear
3:55 PM 15.8 °F 1.4 °F 1.4 °F 53% 30.78 in 10.0 mi WNW 13.8 mph 17.3 mph N/A   Clear
4:15 PM 15.8 °F 3.4 °F 1.4 °F 53% 30.78 in 10.0 mi NW 10.4 mph - N/A   Clear
4:35 PM 15.8 °F 3.4 °F 1.4 °F 53% 30.77 in 10.0 mi NW 10.4 mph - N/A   Clear
4:55 PM 14.0 °F 2.9 °F -0.4 °F 53% 30.77 in 10.0 mi NW 8.1 mph - N/A   Clear
5:15 PM 12.2 °F 1.7 °F -0.4 °F 57% 30.77 in 10.0 mi WNW 6.9 mph - N/A   Clear
5:35 PM 12.2 °F 6.1 °F -0.4 °F 57% 30.77 in 10.0 mi NW 3.5 mph - N/A   Clear
5:55 PM 12.2 °F 4.3 °F -2.2 °F 53% 30.76 in 10.0 mi NW 4.6 mph - N/A   Clear
6:15 PM 12.2 °F 6.1 °F -2.2 °F 53% 30.76 in 10.0 mi WNW 3.5 mph - N/A   Clear
6:35 PM 12.2 °F 6.1 °F -0.4 °F 57% 30.76 in 10.0 mi NW 3.5 mph - N/A   Clear
6:55 PM 12.2 °F 4.3 °F -2.2 °F 53% 30.75 in 10.0 mi NNW 4.6 mph - N/A   Clear
7:15 PM 10.4 °F - -2.2 °F 57% 30.75 in 10.0 mi Calm Calm - N/A   Clear
7:35 PM 10.4 °F - -2.2 °F 57% 30.75 in 10.0 mi Calm Calm - N/A   Clear
7:55 PM 10.4 °F 2.2 °F -0.4 °F 62% 30.75 in 10.0 mi WSW 4.6 mph - N/A   Clear
8:15 PM 8.6 °F 2.0 °F -2.2 °F 62% 30.74 in 10.0 mi West 3.5 mph - N/A   Clear
8:35 PM 10.4 °F 4.0 °F -0.4 °F 62% 30.74 in 10.0 mi West 3.5 mph - N/A   Clear
8:55 PM 10.4 °F 4.0 °F -0.4 °F 62% 30.74 in 10.0 mi WNW 3.5 mph - N/A   Clear
9:15 PM 8.6 °F 0.1 °F -2.2 °F 62% 30.73 in 10.0 mi West 4.6 mph - N/A   Clear
9:35 PM 6.8 °F -3.5 °F -2.2 °F 67% 30.73 in 10.0 mi West 5.8 mph - N/A   Clear
9:55 PM 8.6 °F 2.0 °F -0.4 °F 67% 30.72 in 10.0 mi West 3.5 mph - N/A   Clear
10:15 PM 8.6 °F 2.0 °F -0.4 °F 67% 30.72 in 10.0 mi West 3.5 mph - N/A   Clear
10:35 PM 6.8 °F -2.0 °F -2.2 °F 67% 30.72 in 10.0 mi West 4.6 mph - N/A   Clear
10:55 PM 6.8 °F -2.0 °F -2.2 °F 67% 30.71 in 10.0 mi West 4.6 mph - N/A   Clear
11:15 PM 8.6 °F 0.1 °F -0.4 °F 67% 30.71 in 10.0 mi WSW 4.6 mph - N/A   Clear
11:35 PM 8.6 °F 2.0 °F -0.4 °F 67% 30.71 in 10.0 mi SW 3.5 mph - N/A   Clear
11:55 PM 8.6 °F 2.0 °F -2.2 °F 62% 30.70 in 10.0 mi SW 3.5 mph - N/A   Clear